Location: Dumpton Point
(51.3500°N, 1.4433°E)
Time: 23:56:18
(UTC+00:00)

Vanguard 1 - Pass Details

Date: 30 September 2022
Orbit: 650 x 3831 km, 34.2° (Epoch: 03 December)

Event Time Altitude Azimuth Distance (km) Brightness Sun altitude
Rises 17:25:01 0° 253° (WSW) 5,537 16.2 0.6°
Reaches altitude 10° 17:30:19 10° 241° (WSW) 3,911 14.5 -0.2°
Maximum altitude 17:36:41 20° 198° (SSW) 2,452 12.4 -1.2°
Drops below altitude 10° 17:41:12 10° 151° (SSE) 2,652 12.0 -1.9°
Sets 17:43:57 0° 134° (SE) 3,331 12.4 -2.3°
